Weather History for Altus, OK

Change the Weather History Date:

Tuesday, February 25, 2014

  Actual Average (KLTS) Record (KLTS)
Temperature  
Mean Temperature 38 °F -  
Max Temperature 43 °F 54 °F 42 °F (2014)
Min Temperature 31 °F 31 °F 29 °F (2014)
Degree Days  
Heating Degree Days 28    
Moisture  
Dew Point 26 °F    
Average Humidity 61    
Maximum Humidity 86    
Minimum Humidity 41    
Precipitation  
Precipitation 0.00 in - - ()
Sea Level Pressure  
Sea Level Pressure 30.20 in    
Wind  
Wind Speed 12 mph (NNE)    
Max Wind Speed 30 mph    
Max Gust Speed 37 mph    
Visibility 9 miles    
Events      
Averages and records for this station are not official NWS values.
T = Trace of Precipitation, MM = Missing Value Source: NWS Daily Summary

Daily Weather History Graph

Daily Weather History Graph

Search for Another Location

Airport:

Trip Planner

Search our weather history database for the weather conditions in past years. The results will help you decide how hot, cold, wet, or windy it might be!

Date:

Astronomy

Feb. 25, 2014 Rise Set
Actual Time 7:11 AM CST 6:29 PM CST
Civil Twilight 6:46 AM CST 6:55 PM CST
Nautical Twilight 6:16 AM CST 7:24 PM CST
Astronomical Twilight 5:47 AM CST 7:53 PM CST
Moon 4:01 AM CST (2/25) 2:43 PM CST (2/25)
Length of Visible Light 12h 09m
Length of Day
11h 18m
Waning Crescent, 18% of the Moon is Illuminated
Feb 25
Waning Crescent
Mar 1
New
Mar 8
First Quarter
Mar 16
Full
Mar 23
Last Quarter

Hourly Weather History & Observations

Time (CST) Temp. Windchill Dew Point Humidity Pressure Visibility Wind Dir Wind Speed Gust Speed Precip Events Conditions
12:15 AM 40.3 °F 34.9 °F 34.9 °F 81% 30.09 in 7.0 mi ENE 8.1 mph - N/A   Clear
12:35 AM 39.6 °F 34.7 °F 34.5 °F 82% 30.10 in 7.0 mi ENE 6.9 mph - N/A   Clear
12:55 AM 40.1 °F 36.9 °F 35.1 °F 82% 30.11 in 7.0 mi East 4.6 mph - N/A   Clear
1:15 AM 37.4 °F 33.8 °F 33.1 °F 84% 30.12 in 5.0 mi ESE 4.6 mph - N/A   Clear
1:40 AM 37.4 °F 34.9 °F 33.3 °F 85% 30.14 in 5.0 mi NE 3.5 mph - N/A   Clear
2:00 AM 37.6 °F 30.0 °F 33.6 °F 86% 30.13 in 5.0 mi NNE 11.5 mph - N/A   Clear
2:20 AM 39.4 °F 32.3 °F 34.9 °F 84% 30.14 in 5.0 mi NNE 11.5 mph - N/A   Clear
2:40 AM 38.5 °F 32.1 °F 34.0 °F 84% 30.16 in 7.0 mi NNE 9.2 mph - N/A   Scattered Clouds
3:00 AM 39.9 °F 33.4 °F 35.2 °F 83% 30.16 in 5.0 mi NNE 10.4 mph - N/A   Haze
3:20 AM 40.5 °F 34.6 °F 35.6 °F 83% 30.16 in 7.0 mi NNE 9.2 mph - N/A   Overcast
3:35 AM 41.0 °F 34.3 °F 35.6 °F 81% 30.16 in 7.0 mi NNE 11.5 mph - N/A   Overcast
3:55 AM 39.4 °F 34.5 °F 34.9 °F 84% 30.17 in 5.0 mi North 6.9 mph - N/A   Haze
4:15 AM 40.1 °F 34.7 °F 34.7 °F 81% 30.17 in 7.0 mi North 8.1 mph - N/A   Overcast
4:35 AM 39.2 °F 32.5 °F 33.4 °F 80% 30.17 in 7.0 mi North 10.4 mph - N/A   Mostly Cloudy
4:55 AM 38.7 °F 31.4 °F 32.0 °F 77% 30.18 in 7.0 mi North 11.5 mph - N/A   Mostly Cloudy
5:15 AM 38.3 °F 31.9 °F 32.0 °F 78% 30.18 in 7.0 mi North 9.2 mph - N/A   Overcast
5:35 AM 37.9 °F 32.7 °F 31.8 °F 79% 30.18 in 7.0 mi North 6.9 mph - N/A   Mostly Cloudy
5:55 AM 37.6 °F 32.3 °F 31.6 °F 79% 30.17 in 7.0 mi North 6.9 mph - N/A   Scattered Clouds
6:20 AM 37.8 °F 33.3 °F 31.8 °F 79% 30.18 in 7.0 mi North 5.8 mph - N/A   Mostly Cloudy
6:40 AM 38.7 °F 31.8 °F 31.1 °F 74% 30.18 in 10.0 mi NNE 10.4 mph - N/A   Scattered Clouds
6:55 AM 36.7 °F 28.0 °F 30.2 °F 77% 30.19 in 7.0 mi North 13.8 mph - N/A   Scattered Clouds
7:15 AM 36.5 °F 27.4 °F 29.7 °F 76% 30.21 in 10.0 mi North 15.0 mph - N/A   Overcast
7:35 AM 36.1 °F 26.9 °F 29.3 °F 76% 30.22 in 10.0 mi North 15.0 mph - N/A   Overcast
7:55 AM 35.2 °F 25.0 °F 28.6 °F 77% 30.22 in 10.0 mi North 17.3 mph 21.9 mph N/A   Mostly Cloudy
8:15 AM 34.7 °F 25.1 °F 27.7 °F 76% 30.24 in 10.0 mi North 15.0 mph - N/A   Overcast
8:35 AM 34.7 °F 24.3 °F 26.4 °F 72% 30.25 in 10.0 mi North 17.3 mph - N/A   Overcast
8:55 AM 34.9 °F 25.3 °F 25.3 °F 68% 30.26 in 10.0 mi North 15.0 mph - N/A   Overcast
9:15 AM 35.6 °F 26.2 °F 24.4 °F 64% 30.27 in 10.0 mi NNE 15.0 mph - N/A   Overcast
9:35 AM 36.1 °F 26.5 °F 23.7 °F 61% 30.27 in 10.0 mi NNE 16.1 mph - N/A   Overcast
9:55 AM 37.8 °F 28.3 °F 23.9 °F 57% 30.27 in 10.0 mi NNE 17.3 mph - N/A   Overcast
10:15 AM 37.6 °F 27.7 °F 23.2 °F 56% 30.25 in 10.0 mi NNE 18.4 mph - N/A   Mostly Cloudy
10:35 AM 39.9 °F 30.8 °F 23.2 °F 51% 30.25 in 10.0 mi NNE 18.4 mph 25.3 mph N/A   Mostly Cloudy
10:55 AM 39.6 °F 30.6 °F 22.5 °F 50% 30.24 in 10.0 mi NNE 17.3 mph - N/A   Mostly Cloudy
11:15 AM 39.6 °F 30.6 °F 21.7 °F 49% 30.24 in 10.0 mi NNE 17.3 mph - N/A   Overcast
11:35 AM 40.6 °F 32.7 °F 21.4 °F 46% 30.24 in 10.0 mi NE 15.0 mph - N/A   Overcast
11:55 AM 41.2 °F 33.0 °F 21.6 °F 46% 30.23 in 10.0 mi NNE 16.1 mph 19.6 mph N/A   Overcast
12:15 PM 42.6 °F 35.9 °F 21.9 °F 44% 30.22 in 10.0 mi NNE 12.7 mph 19.6 mph N/A   Overcast
12:35 PM 43.2 °F 35.9 °F 21.4 °F 42% 30.21 in 10.0 mi NNE 15.0 mph - N/A   Mostly Cloudy
12:55 PM 43.5 °F 36.1 °F 21.4 °F 41% 30.20 in 10.0 mi NE 16.1 mph 20.7 mph N/A   Mostly Cloudy
1:15 PM 43.9 °F 37.2 °F 21.6 °F 41% 30.19 in 10.0 mi NE 13.8 mph - N/A   Overcast
1:35 PM 42.8 °F 35.8 °F 21.0 °F 42% 30.19 in 10.0 mi NNE 13.8 mph 19.6 mph N/A   Overcast
1:55 PM 42.6 °F 35.2 °F 21.2 °F 43% 30.18 in 10.0 mi NE 15.0 mph 18.4 mph N/A   Overcast
2:20 PM 43.2 °F 36.6 °F 21.6 °F 42% 30.17 in 10.0 mi NE 12.7 mph - N/A   Overcast
2:35 PM 43.5 °F 36.4 °F 21.7 °F 42% 30.17 in 10.0 mi NE 15.0 mph - N/A   Overcast
2:55 PM 43.0 °F 36.0 °F 21.9 °F 43% 30.16 in 10.0 mi NE 13.8 mph - N/A   Overcast
3:15 PM 42.3 °F 34.4 °F 21.7 °F 44% 30.16 in 10.0 mi NE 16.1 mph - N/A   Overcast
3:35 PM 42.1 °F 35.2 °F 21.6 °F 44% 30.15 in 10.0 mi NE 12.7 mph - N/A   Overcast
3:55 PM 41.9 °F 34.3 °F 21.4 °F 44% 30.14 in 10.0 mi NE 15.0 mph - N/A   Overcast
4:15 PM 41.7 °F 34.1 °F 21.4 °F 44% 30.14 in 10.0 mi NE 15.0 mph - N/A   Overcast
4:40 PM 41.5 °F 33.2 °F 21.6 °F 45% 30.13 in 10.0 mi NE 17.3 mph - N/A   Overcast
4:55 PM 42.1 °F 33.6 °F 22.1 °F 45% 30.13 in 10.0 mi NE 18.4 mph 24.2 mph N/A   Overcast
5:15 PM 41.5 °F 33.8 °F 22.1 °F 46% 30.14 in 10.0 mi NE 15.0 mph - N/A   Overcast
5:35 PM 41.0 °F 33.1 °F 22.3 °F 47% 30.14 in 10.0 mi ENE 15.0 mph - N/A   Overcast
6:00 PM 40.6 °F 33.0 °F 22.3 °F 48% 30.15 in 10.0 mi NE 13.8 mph - N/A   Overcast
6:15 PM 40.3 °F 31.9 °F 22.1 °F 48% 30.15 in 10.0 mi NE 16.1 mph 19.6 mph N/A   Overcast
6:35 PM 40.3 °F 31.6 °F 22.3 °F 49% 30.16 in 10.0 mi NE 17.3 mph - N/A   Overcast
7:00 PM 40.3 °F 32.6 °F 22.5 °F 49% 30.17 in 10.0 mi NE 13.8 mph - N/A   Overcast
7:15 PM 40.3 °F 33.4 °F 22.8 °F 50% 30.18 in 10.0 mi NE 11.5 mph - N/A   Overcast
7:40 PM 40.3 °F 33.0 °F 22.8 °F 50% 30.18 in 10.0 mi ENE 12.7 mph - N/A   Overcast
7:55 PM 40.5 °F 33.2 °F 22.8 °F 49% 30.19 in 10.0 mi NE 12.7 mph - N/A   Overcast
8:15 PM 40.5 °F 32.1 °F 22.6 °F 49% 30.20 in 10.0 mi NE 16.1 mph - N/A   Overcast
8:40 PM 40.3 °F 32.2 °F 22.1 °F 48% 30.21 in 10.0 mi NE 15.0 mph - N/A   Overcast
8:55 PM 40.1 °F 31.6 °F 21.9 °F 48% 30.22 in 10.0 mi NE 16.1 mph - N/A   Overcast
9:15 PM 39.9 °F 30.2 °F 21.7 °F 48% 30.23 in 10.0 mi NNE 20.7 mph 26.5 mph N/A   Overcast
9:35 PM 37.9 °F 27.1 °F 21.2 °F 51% 30.24 in 10.0 mi NNE 23.0 mph 26.5 mph N/A   Overcast
9:55 PM 36.5 °F 26.3 °F 20.8 °F 53% 30.28 in 10.0 mi NNE 18.4 mph 32.2 mph N/A   Overcast
10:15 PM 35.1 °F 22.5 °F 20.5 °F 55% 30.29 in 10.0 mi NNE 26.5 mph 33.4 mph N/A   Overcast
10:40 PM 33.6 °F 20.8 °F 20.3 °F 58% 30.32 in 10.0 mi NNE 25.3 mph 33.4 mph N/A   Overcast
11:00 PM 32.5 °F 19.4 °F 19.9 °F 60% 30.33 in 10.0 mi NNE 25.3 mph 33.4 mph N/A   Overcast
11:20 PM 32.0 °F 17.6 °F 19.6 °F 60% 30.35 in 10.0 mi NNE 29.9 mph 36.8 mph N/A   Overcast
11:40 PM 31.3 °F 17.4 °F 19.4 °F 61% 30.36 in 10.0 mi NNE 26.5 mph 32.2 mph N/A   Overcast